sat.trackr.live / text

‹ back to catalog

STARLINK-11442 [DTC]

NORAD 62885 · 2025-024G

PAYLOAD ACTIVE UNKNOWN

§ Identity

Operator
Country
US
Launch date
2025-02-04
Launch site
AFETR
Launch vehicle
Mass (kg)
RCS (m²)

Purposes: comms

External: N2YO · Heavens-Above · Gunter

§ Orbital elements

Epoch: 2026-09-20T21:47:24.999072Z

Period
91.67 min
Inclination
42.9998°
Eccentricity
0.0001060
Mean motion
15.70918326 rev/d
Perigee alt
355.6 km
Apogee alt
357.0 km
Semi-major
6,734.4 km
B*
1.0374e-3
RAAN
84.3616°
Arg perigee
281.7291°
Mean anomaly
78.3458°
Rev number
9,417

§ Raw data

STARLINK-11442 [DTC]1 62885U 25024G   26263.90792823  .00135291  00000+0  10374-2 0  99982 62885  42.9998  84.3616 0001060 281.7291  78.3458 15.70918326 94175

JSON: /api/v1/satellites/62885 · /tle

For live sub-satellite position, see the globe view (requires WebGL).

§ Visibility from observer

Set your observer location to see the next 7 days of passes ≥ 10°. The values pass through the URL so the page stays shareable.

No JS? Fill the form by hand. The geolocation button needs JavaScript.